Location: Krasnoyarskiy
(51.1133°N, 71.6497°E)
Time: 05:40:47
(UTC+00:00)

Daily predictions for brighter satellites

Satellite Brightness Start Highest point End
(mag) Time Altitude Azimuth Time Altitude Azimuth Time Altitude Azimuth
Cosmos 1346 Rocket 2.9 00:02:44 10° SSW 00:06:39 56° WNW 00:10:36 10° N
IRS-P3 4.4 00:01:35 10° N 00:06:43 49° WNW 00:11:49 10° SW
ATLAS CENTAUR R/B 2.7 00:02:05 10° SSW 00:06:44 49° ESE 00:11:26 10° NE
Cosmos 2322 Rocket 4.0 00:02:04 10° NNW 00:07:10 32° NE 00:12:13 10° ESE
Spot 4 Rocket 4.0 00:04:46 10° NNE 00:09:56 84° WNW 00:15:04 10° SSW
Cosmos 1743 3.1 00:07:17 10° NNW 00:10:50 38° W 00:14:22 10° SSW
USA 305 3.4 00:07:16 10° SW 00:11:18 54° SSE 00:15:21 10° ENE
Cosmos 1420 Rocket 4.0 00:07:07 10° SSW 00:12:22 83° WNW 00:17:37 10° NNE
CZ-2C R/B 2.9 00:09:09 10° NNE 00:12:53 75° ESE 00:16:40 10° S
Cosmos 1356 4.0 00:10:54 10° SW 00:13:52 32° WNW 00:16:50 10° N
Cosmos 2346 Rocket 4.5 00:09:12 10° NNW 00:15:09 60° W 00:21:06 10° S
Meteor 2-9 Rocket 4.3 00:11:14 10° NNW 00:17:06 85° WSW 00:22:47 10° S
Cosmos 2369 3.7 00:12:14 10° NW 00:17:50 61° WSW 00:23:23 10° SSE
Cosmos 1980 Rocket 2.2 00:13:30 10° NW 00:19:02 63° WSW 00:24:33 10° SSE
Cosmos 1441 Rocket 3.2 00:15:29 10° SSW 00:19:07 54° WNW 00:22:48 10° N
Cosmos 1741 Rocket 4.2 00:13:54 10° NNW 00:19:10 76° ENE 00:24:23 10° SSE
Orbus 7S? 3.8 00:17:28 10° SW 00:20:41 79° SE 00:27:23 10° ENE
COSMO-SKYMED 1 2.6 00:17:06 10° SSE 00:21:26 87° WSW 00:25:50 10° NNW
ALOS 3.8 00:20:38 10° NNW 00:23:43 18° WNW 00:26:48 10° W
Cosmos 2173 Rocket 3.9 00:18:37 10° SSW 00:24:44 69° WNW 00:30:50 10° N
CZ-2D R/B 4.1 00:21:19 10° N 00:24:52 33° WNW 00:28:26 10° SW
Cosmos 2278 3.8 00:20:59 10° NNW 00:26:42 89° ENE 00:32:21 10° SSE
SJ-12 4.1 00:23:44 10° NNE 00:27:49 76° ESE 00:31:53 10° S
BREEZE M DEB (TANK) 4.1 00:17:21 10° SW 00:28:44 49° SSE 00:32:19 10° E
CZ-4C R/B 4.0 00:26:09 10° SSW 00:29:58 37° W 00:33:59 10° NNW
Lacrosse 4 Rocket 2.7 00:27:46 10° NNW 00:31:55 44° NE 00:36:09 10° ESE
SL-16 R/B 3.0 00:26:34 10° NNW 00:32:10 55° NE 00:37:44 10° SE
ARIANE 5 R/B 3.3 00:28:22 10° N 00:32:48 31° WNW 00:37:09 10° WSW
Cosmos 1378 3.1 00:29:45 10° S 00:33:22 86° E 00:37:02 10° N
Meteor 1-29 3.6 00:30:34 10° N 00:33:32 32° WNW 00:36:31 10° SW
Cosmos 1869 Rocket 3.8 00:29:40 10° N 00:34:10 82° E 00:38:36 10° SSE
Okean 1 3.3 00:30:33 10° SSW 00:34:35 76° W 00:38:40 10° N
CZ-3 R/B 4.4 00:36:31 10° SW 00:45:23 17° SSW 00:50:19 10° SSE
